EZY12YT EGKK-LHBP

Flight info

Callsign EZY12YT
Flight time N/A
Altitude 39000
Route ODVIK Y311 DVR UL9 KONAN DCT KOK UL607 REMBA DCT MATUG DCT GUBAX DCT BARSU DCT MOOCE DCT RUDNO DCT DEXIT DCT ABLOM/N0416F350 DCT XENAK/N0345F230 L175 ANEXA
Aircraft A20N/M-SDE2E3FGHIJ1RWXYZ/LB1

Departure

Time 2026-05-05 11:24
Airport London Gatwick Airport (EGKK)

Arrival

Time N/A
Airport Budapest Liszt Ferenc International Airport (LHBP)
Time Latitude Longitude Altitude Speed Heading
2026-05-05 10:51 51.15832 -0.17556 203 ft 0 kts 347°
2026-05-05 11:09 51.15742 -0.17528 204 ft 0 kts 260°
2026-05-05 11:09 51.15760 -0.17533 203 ft 0 kts 260°
2026-05-05 11:13 51.15754 -0.17578 207 ft 10 kts 257°
2026-05-05 11:13 51.15730 -0.17743 208 ft 19 kts 257°
2026-05-05 11:13 51.15699 -0.17982 208 ft 25 kts 257°
2026-05-05 11:14 51.15660 -0.18237 211 ft 15 kts 262°
2026-05-05 11:14 51.15602 -0.18351 206 ft 9 kts 178°
2026-05-05 11:14 51.15538 -0.18325 203 ft 13 kts 168°
2026-05-05 11:14 51.15429 -0.18289 208 ft 19 kts 168°
2026-05-05 11:15 51.15282 -0.18242 207 ft 24 kts 167°
2026-05-05 11:15 51.15196 -0.18255 212 ft 2 kts 249°
2026-05-05 11:15 51.15187 -0.18321 213 ft 10 kts 257°
2026-05-05 11:15 51.15167 -0.18467 206 ft 19 kts 258°
2026-05-05 11:16 51.15137 -0.18689 203 ft 27 kts 261°
2026-05-05 11:16 51.15091 -0.19021 204 ft 35 kts 255°
2026-05-05 11:16 51.15045 -0.19325 205 ft 16 kts 257°
2026-05-05 11:16 51.15017 -0.19536 207 ft 23 kts 258°
2026-05-05 11:17 51.14987 -0.19792 208 ft 8 kts 260°
2026-05-05 11:17 51.14975 -0.19890 208 ft 13 kts 259°
2026-05-05 11:17 51.14956 -0.20065 215 ft 19 kts 257°
2026-05-05 11:17 51.14915 -0.20299 203 ft 24 kts 257°
2026-05-05 11:18 51.14874 -0.20569 211 ft 27 kts 270°
2026-05-05 11:18 51.14839 -0.20849 211 ft 29 kts 253°
2026-05-05 11:18 51.14804 -0.21095 206 ft 0 kts 258°
2026-05-05 11:18 51.14797 -0.21138 213 ft 10 kts 253°
2026-05-05 11:19 51.14765 -0.21312 210 ft 23 kts 255°
2026-05-05 11:19 51.14686 -0.21385 212 ft 14 kts 149°
2026-05-05 11:19 51.14628 -0.21331 208 ft 0 kts 160°
2026-05-05 11:19 51.14621 -0.21328 207 ft 0 kts 166°
2026-05-05 11:20 51.14620 -0.21328 207 ft 1 kts 166°
2026-05-05 11:20 51.14613 -0.21325 205 ft 0 kts 166°
2026-05-05 11:21 51.14592 -0.21317 211 ft 8 kts 167°
2026-05-05 11:22 51.14529 -0.21249 204 ft 14 kts 113°
2026-05-05 11:22 51.14529 -0.21100 203 ft 13 kts 78°
2026-05-05 11:22 51.14536 -0.21050 208 ft 0 kts 77°
2026-05-05 11:23 51.14536 -0.21049 208 ft 0 kts 77°
2026-05-05 11:23 51.14568 -0.20809 208 ft 65 kts 77°
2026-05-05 11:23 51.14731 -0.19650 215 ft 143 kts 77°
2026-05-05 11:23 51.14936 -0.18189 742 ft 146 kts 69°
2026-05-05 11:24 51.14987 -0.17878 1012 ft 138 kts 66°
2026-05-05 11:24 51.15247 -0.16562 1818 ft 141 kts 68°
2026-05-05 11:24 51.15528 -0.15009 2469 ft 155 kts 73°
2026-05-05 11:24 51.15748 -0.13273 3041 ft 170 kts 76°
2026-05-05 11:25 51.15969 -0.11311 3500 ft 193 kts 77°
2026-05-05 11:25 51.16235 -0.09081 4000 ft 216 kts 77°
2026-05-05 11:25 51.16547 -0.06627 4650 ft 234 kts 77°
2026-05-05 11:25 51.16852 -0.04018 5167 ft 251 kts 82°
2026-05-05 11:26 51.16884 -0.01171 5762 ft 262 kts 91°
2026-05-05 11:26 51.16823 0.01480 6434 ft 269 kts 91°
2026-05-05 11:26 51.16760 0.04480 7116 ft 272 kts 91°
2026-05-05 11:26 51.16650 0.07499 7838 ft 274 kts 95°
2026-05-05 11:27 51.16431 0.10554 8496 ft 279 kts 96°
2026-05-05 11:27 51.16204 0.13644 9171 ft 283 kts 96°
2026-05-05 11:27 51.16012 0.16795 9975 ft 289 kts 92°
2026-05-05 11:27 51.15940 0.20036 11038 ft 301 kts 91°
2026-05-05 11:28 51.15874 0.23504 11716 ft 326 kts 91°
2026-05-05 11:28 51.15809 0.27158 12548 ft 339 kts 91°
2026-05-05 11:28 51.15730 0.30977 13841 ft 341 kts 91°
2026-05-05 11:28 51.15647 0.34786 14860 ft 347 kts 91°
2026-05-05 11:29 51.15572 0.38690 15754 ft 356 kts 91°
2026-05-05 11:29 51.15501 0.42649 16809 ft 359 kts 91°
2026-05-05 11:29 51.15433 0.46683 17606 ft 368 kts 91°
2026-05-05 11:29 51.15375 0.50755 17957 ft 371 kts 91°
2026-05-05 11:30 51.15320 0.54875 18103 ft 371 kts 91°
2026-05-05 11:30 51.15266 0.58975 18117 ft 372 kts 91°
2026-05-05 11:30 51.15212 0.62971 18110 ft 373 kts 91°
2026-05-05 11:30 51.15140 0.67091 18073 ft 373 kts 91°
2026-05-05 11:31 51.15053 0.71243 18509 ft 379 kts 92°
2026-05-05 11:31 51.14963 0.75455 19441 ft 380 kts 92°
2026-05-05 11:31 51.14874 0.79679 20336 ft 384 kts 92°
2026-05-05 11:31 51.14782 0.83966 21100 ft 391 kts 92°
2026-05-05 11:32 51.14688 0.88323 21892 ft 396 kts 93°
2026-05-05 11:32 51.14594 0.92677 22674 ft 402 kts 94°
2026-05-05 11:32 51.14494 0.97161 23516 ft 404 kts 93°
2026-05-05 11:32 51.14394 1.01622 24394 ft 404 kts 94°
2026-05-05 11:33 51.14290 1.06141 25030 ft 410 kts 94°
2026-05-05 11:33 51.14181 1.10703 25646 ft 416 kts 94°
2026-05-05 11:33 51.14069 1.15324 26288 ft 419 kts 94°
2026-05-05 11:33 51.13955 1.20008 26924 ft 424 kts 94°
2026-05-05 11:34 51.13839 1.24656 27496 ft 428 kts 94°
2026-05-05 11:34 51.13718 1.29476 28110 ft 432 kts 94°
2026-05-05 11:34 51.13597 1.34223 28638 ft 436 kts 94°
2026-05-05 11:34 51.13470 1.39064 29193 ft 440 kts 94°
2026-05-05 11:35 51.13341 1.43953 29682 ft 445 kts 95°
2026-05-05 11:35 51.13206 1.48976 30126 ft 450 kts 95°
2026-05-05 11:35 51.13074 1.53830 30569 ft 454 kts 95°
2026-05-05 11:35 51.12934 1.58870 31029 ft 457 kts 95°
2026-05-05 11:36 51.12793 1.63904 31526 ft 459 kts 95°
2026-05-05 11:36 51.12648 1.68978 32121 ft 459 kts 95°
2026-05-05 11:36 51.12501 1.74058 32688 ft 459 kts 95°
2026-05-05 11:36 51.12350 1.79195 33277 ft 459 kts 95°
2026-05-05 11:37 51.12200 1.84200 33834 ft 459 kts 95°
2026-05-05 11:37 51.12046 1.89283 34312 ft 458 kts 95°
2026-05-05 11:37 51.11891 1.94263 34731 ft 458 kts 95°
2026-05-05 11:37 51.11728 1.99389 35037 ft 458 kts 95°
2026-05-05 11:38 51.11565 2.04449 35491 ft 458 kts 95°
2026-05-05 11:38 51.11404 2.09445 35925 ft 458 kts 95°
2026-05-05 11:38 51.11239 2.14505 36350 ft 458 kts 95°
2026-05-05 11:38 51.11071 2.19573 36759 ft 459 kts 95°
2026-05-05 11:39 51.10902 2.24642 37157 ft 459 kts 95°
2026-05-05 11:39 51.10731 2.29722 37562 ft 459 kts 95°
2026-05-05 11:39 51.10558 2.34792 37935 ft 460 kts 95°
2026-05-05 11:39 51.10381 2.39879 38300 ft 460 kts 95°
2026-05-05 11:40 51.10202 2.44974 38643 ft 461 kts 95°
2026-05-05 11:40 51.10021 2.50071 38856 ft 461 kts 95°
2026-05-05 11:40 51.09838 2.55167 38924 ft 460 kts 95°
2026-05-05 11:41 51.09449 2.63573 38930 ft 458 kts 99°
2026-05-05 11:41 51.07982 2.73412 38927 ft 456 kts 108°
2026-05-05 11:42 51.06221 2.83078 38935 ft 456 kts 108°
2026-05-05 11:42 51.04459 2.92791 38934 ft 457 kts 108°
2026-05-05 11:43 51.02685 3.02493 38932 ft 457 kts 108°
2026-05-05 11:43 51.00907 3.12155 38923 ft 456 kts 108°
2026-05-05 11:44 50.99116 3.21834 38918 ft 456 kts 108°
2026-05-05 11:44 50.97334 3.31420 38903 ft 456 kts 108°
2026-05-05 11:45 50.95528 3.41078 38905 ft 455 kts 109°
2026-05-05 11:45 50.93718 3.50710 38905 ft 455 kts 109°
2026-05-05 11:46 50.91901 3.60326 38899 ft 455 kts 109°
2026-05-05 11:46 50.90067 3.69951 38900 ft 455 kts 109°
2026-05-05 11:47 50.88226 3.79484 38899 ft 456 kts 109°
2026-05-05 11:47 50.86364 3.89078 38902 ft 456 kts 109°
2026-05-05 11:48 50.83553 4.03487 38904 ft 456 kts 109°
2026-05-05 11:48 50.81670 4.13084 38908 ft 457 kts 110°
2026-05-05 11:49 50.79778 4.22680 38909 ft 456 kts 110°
2026-05-05 11:49 50.77896 4.32189 38908 ft 453 kts 110°
2026-05-05 11:50 50.76010 4.41656 38909 ft 454 kts 110°
2026-05-05 11:50 50.74096 4.51218 38909 ft 454 kts 110°
2026-05-05 11:51 50.72199 4.60653 38906 ft 453 kts 110°
2026-05-05 11:51 50.70347 4.70151 38893 ft 454 kts 110°
2026-05-05 11:52 50.68510 4.79686 38895 ft 454 kts 110°
2026-05-05 11:52 50.66654 4.89208 38892 ft 454 kts 110°
2026-05-05 11:53 50.64928 4.98788 38893 ft 455 kts 107°
2026-05-05 11:53 50.63412 5.08507 38887 ft 456 kts 107°
2026-05-05 11:54 50.61864 5.18165 38896 ft 455 kts 108°
2026-05-05 11:54 50.60278 5.27818 38890 ft 455 kts 108°
2026-05-05 11:55 50.58685 5.37437 38885 ft 452 kts 108°
2026-05-05 11:55 50.57090 5.47009 38876 ft 453 kts 108°
2026-05-05 11:56 50.55494 5.56537 38866 ft 453 kts 108°
2026-05-05 11:56 50.53889 5.66080 38861 ft 451 kts 109°
2026-05-05 11:57 50.52275 5.75604 38863 ft 451 kts 109°
2026-05-05 11:57 50.50652 5.85137 38858 ft 451 kts 109°
2026-05-05 11:58 50.49023 5.94648 38854 ft 449 kts 109°
2026-05-05 11:58 50.47399 6.04089 38842 ft 448 kts 109°
2026-05-05 11:59 50.45763 6.13544 38842 ft 448 kts 109°
2026-05-05 11:59 50.44121 6.22978 38843 ft 448 kts 109°
2026-05-05 12:00 50.42472 6.32406 38830 ft 448 kts 109°
2026-05-05 12:00 50.41264 6.42032 38832 ft 453 kts 100°
2026-05-05 12:01 50.40542 6.51785 38827 ft 454 kts 101°
2026-05-05 12:01 50.39791 6.61628 38830 ft 454 kts 101°
2026-05-05 12:02 50.39029 6.71433 38842 ft 454 kts 101°
2026-05-05 12:02 50.38256 6.81255 38846 ft 454 kts 101°
2026-05-05 12:03 50.37475 6.91076 38854 ft 454 kts 101°
2026-05-05 12:03 50.36692 7.00823 38859 ft 454 kts 101°
2026-05-05 12:04 50.35894 7.10637 38856 ft 454 kts 101°
2026-05-05 12:04 50.35088 7.20448 38844 ft 454 kts 101°
2026-05-05 12:05 50.34274 7.30258 38854 ft 454 kts 101°
2026-05-05 12:05 50.33451 7.40082 38837 ft 454 kts 101°
2026-05-05 12:06 50.32622 7.49870 38846 ft 454 kts 102°
2026-05-05 12:06 50.31782 7.59679 38847 ft 454 kts 102°
2026-05-05 12:07 50.30994 7.68831 38838 ft 435 kts 102°
2026-05-05 12:07 50.30596 7.73447 38838 ft 423 kts 102°
2026-05-05 12:07 50.30197 7.77988 38840 ft 428 kts 102°
2026-05-05 12:08 50.29376 7.87234 38832 ft 432 kts 102°
2026-05-05 12:08 50.28304 7.96303 38841 ft 430 kts 107°
2026-05-05 12:09 50.27060 8.05315 38842 ft 429 kts 106°
2026-05-05 12:09 50.26451 8.09780 38842 ft 415 kts 107°
2026-05-05 12:09 50.25859 8.14106 38843 ft 401 kts 107°
2026-05-05 12:10 50.24667 8.22636 38847 ft 408 kts 107°
2026-05-05 12:10 50.23454 8.31256 38837 ft 407 kts 107°
2026-05-05 12:11 50.22230 8.39924 38845 ft 408 kts 107°
2026-05-05 12:11 50.21120 8.47742 38831 ft 408 kts 107°
2026-05-05 12:12 50.19897 8.56318 38830 ft 408 kts 107°
2026-05-05 12:12 50.18658 8.64943 38827 ft 407 kts 107°
2026-05-05 12:13 50.17414 8.73562 38825 ft 407 kts 107°
2026-05-05 12:13 50.16167 8.82149 38826 ft 407 kts 108°
2026-05-05 12:14 50.14908 8.90773 38828 ft 407 kts 108°
2026-05-05 12:14 50.13646 8.99369 38826 ft 407 kts 108°
2026-05-05 12:15 50.12377 9.07965 38829 ft 407 kts 108°
2026-05-05 12:15 50.11100 9.16571 38834 ft 407 kts 108°
2026-05-05 12:16 50.09816 9.25173 38835 ft 407 kts 108°
2026-05-05 12:16 50.08541 9.33662 38835 ft 407 kts 108°
2026-05-05 12:17 50.07243 9.42260 38839 ft 408 kts 108°
2026-05-05 12:17 50.05941 9.50844 38842 ft 408 kts 108°
2026-05-05 12:18 50.04629 9.59444 38843 ft 408 kts 108°
2026-05-05 12:18 50.03322 9.67975 38834 ft 408 kts 108°
2026-05-05 12:19 50.02173 9.75425 38836 ft 408 kts 108°
2026-05-05 12:19 50.00987 9.83081 38844 ft 409 kts 108°
2026-05-05 12:20 49.99650 9.91676 38828 ft 409 kts 108°
2026-05-05 12:20 49.98306 10.00262 38852 ft 408 kts 108°
2026-05-05 12:21 49.96967 10.08774 38828 ft 408 kts 108°
2026-05-05 12:21 49.95613 10.17341 38826 ft 408 kts 108°
2026-05-05 12:22 49.94253 10.25901 38816 ft 408 kts 109°
2026-05-05 12:22 49.92888 10.34450 38824 ft 408 kts 109°
2026-05-05 12:23 49.91450 10.41362 38827 ft 402 kts 119°
2026-05-05 12:23 49.89077 10.49176 38812 ft 401 kts 120°
2026-05-05 12:24 49.86716 10.57032 38813 ft 401 kts 120°
2026-05-05 12:24 49.84354 10.64860 38809 ft 401 kts 120°
2026-05-05 12:25 49.81992 10.72648 38813 ft 401 kts 120°
2026-05-05 12:25 49.79601 10.80502 38808 ft 402 kts 120°
2026-05-05 12:26 49.77224 10.88286 38810 ft 402 kts 120°
2026-05-05 12:26 49.74828 10.96105 38798 ft 403 kts 120°
2026-05-05 12:27 49.72420 11.03941 38802 ft 403 kts 120°
2026-05-05 12:27 49.70003 11.11783 38803 ft 404 kts 120°
2026-05-05 12:28 49.67584 11.19603 38809 ft 404 kts 120°
2026-05-05 12:28 49.65151 11.27445 38811 ft 405 kts 120°
2026-05-05 12:29 49.62706 11.35299 38808 ft 405 kts 120°
2026-05-05 12:29 49.60259 11.43136 38807 ft 405 kts 120°
2026-05-05 12:30 49.57807 11.50969 38805 ft 406 kts 120°
2026-05-05 12:30 49.55646 11.58975 38804 ft 410 kts 113°
2026-05-05 12:31 49.53776 11.67272 38811 ft 411 kts 113°
2026-05-05 12:31 49.51882 11.75595 38790 ft 411 kts 113°
2026-05-05 12:32 49.49981 11.83893 38785 ft 411 kts 113°
2026-05-05 12:32 49.48073 11.92187 38782 ft 411 kts 113°
2026-05-05 12:33 49.46150 12.00510 38780 ft 411 kts 113°
2026-05-05 12:33 49.44243 12.08737 38780 ft 411 kts 114°
2026-05-05 12:34 49.42319 12.16996 38769 ft 411 kts 113°
2026-05-05 12:34 49.40385 12.25271 38769 ft 411 kts 114°
2026-05-05 12:35 49.38467 12.33449 38767 ft 411 kts 114°
2026-05-05 12:35 49.36506 12.41778 38771 ft 412 kts 114°
2026-05-05 12:36 49.34551 12.50039 38775 ft 412 kts 115°
2026-05-05 12:36 49.31891 12.57708 38765 ft 404 kts 130°
2026-05-05 12:37 49.28530 12.64615 38764 ft 405 kts 130°
2026-05-05 12:37 49.25181 12.71559 38772 ft 405 kts 130°
2026-05-05 12:38 49.21845 12.78462 38777 ft 406 kts 130°
2026-05-05 12:38 49.18457 12.85447 38789 ft 407 kts 130°
2026-05-05 12:39 49.15101 12.92347 38791 ft 408 kts 130°
2026-05-05 12:39 49.11712 12.99296 38796 ft 408 kts 130°
2026-05-05 12:40 49.08318 13.06238 38803 ft 408 kts 130°
2026-05-05 12:40 49.04915 13.13182 38807 ft 409 kts 131°
2026-05-05 12:41 49.01504 13.20122 38805 ft 409 kts 131°
2026-05-05 12:41 48.98098 13.27036 38802 ft 408 kts 131°
2026-05-05 12:42 48.94677 13.33960 38793 ft 408 kts 130°
2026-05-05 12:42 48.91282 13.40815 38786 ft 408 kts 130°
2026-05-05 12:43 48.87869 13.47689 38792 ft 407 kts 131°
2026-05-05 12:43 48.84447 13.54564 38790 ft 407 kts 131°
2026-05-05 12:44 48.81034 13.61402 38794 ft 407 kts 131°
2026-05-05 12:44 48.77642 13.68300 38780 ft 409 kts 126°
2026-05-05 12:45 48.75252 13.76158 38785 ft 415 kts 108°
2026-05-05 12:45 48.73683 13.84592 38789 ft 416 kts 108°
2026-05-05 12:46 48.72088 13.93009 38801 ft 417 kts 109°
2026-05-05 12:46 48.70475 14.01454 38804 ft 417 kts 109°
2026-05-05 12:47 48.68866 14.09835 38802 ft 417 kts 109°